Simultaneous Nadir Overpasses (SNOs) Predictions

Prediction of SNOs between METOP-B and NOAA-19 Satellite Orbit:

Table of predicted SNOs for the next 14.0 days since TLE Epoch: 12/6/2013
Index Date (METOP-B) Time (METOP-B) Lat,Lon (METOP-B) SZA (METOP-B ) Date (NOAA-19) Time (NOAA-19) Lat,Lon (NOAA-19) SZA (NOAA-19 ) Distance(km) Time Diff (sec)
1 12/12/2013 09:45:48 -73.78,-151.90 83.18 12/12/2013 09:44:35 -73.78,-152.65 83.17 23.12 73
2 12/12/2013 10:36:30 73.63, 15.08 96.68 12/12/2013 10:35:32 73.62, 14.99 96.68 3.22 58
3 12/12/2013 11:27:14 -73.57,-177.75 83.38 12/12/2013 11:26:35 -73.57,-177.67 83.37 2.61 39
4 12/12/2013 12:17:53 73.56, -10.42 96.62 12/12/2013 12:17:35 73.56, -10.40 96.62 0.69 18
5 12/12/2013 13:08:36 -73.55, 156.87 83.40 12/12/2013 13:08:39 -73.57, 156.83 83.38 2.50 3
6
